Weather History for Fort Leonard Wood, MO

Change the Weather History Date:

Thursday, January 3, 2013

  Actual Average Record
Temperature  
Mean Temperature 30 °F -  
Max Temperature 39 °F 40 °F 71 °F (2004)
Min Temperature 21 °F 27 °F 1 °F (2014)
Degree Days  
Heating Degree Days 35    
Moisture  
Dew Point 23 °F    
Average Humidity 77    
Maximum Humidity 99    
Minimum Humidity 57    
Precipitation  
Precipitation 0.00 in - - ()
Sea Level Pressure  
Sea Level Pressure 30.36 in    
Wind  
Wind Speed 5 mph (West)    
Max Wind Speed 10 mph    
Max Gust Speed -    
Visibility 10 miles    
Events      
Averages and records for this station are not official NWS values.
T = Trace of Precipitation, MM = Missing Value Source: NWS Daily Summary

Daily Weather History Graph

Daily Weather History Graph

Search for Another Location

Airport:

Trip Planner

Search our weather history database for the weather conditions in past years. The results will help you decide how hot, cold, wet, or windy it might be!

Date:

Astronomy

Jan. 03, 2013 Rise Set
Actual Time 7:24 AM CST 5:02 PM CST
Civil Twilight 6:55 AM CST 5:31 PM CST
Nautical Twilight 6:22 AM CST 6:04 PM CST
Astronomical Twilight 5:50 AM CST 6:36 PM CST
Moon 11:30 PM CST (1/3) 10:43 AM CST (1/3)
Length of Visible Light 10h 36m
Length of Day
9h 38m
Waning Gibbous, 65% of the Moon is Illuminated
Jan 3
Waning Gibbous
Jan 4
Last Quarter
Jan 11
New
Jan 18
First Quarter
Jan 26
Full

Hourly Weather History & Observations

Time (CST) Temp. Windchill Dew Point Humidity Pressure Visibility Wind Dir Wind Speed Gust Speed Precip Events Conditions
12:55 AM 25.0 °F 18.1 °F 19.0 °F 78% 30.24 in 10.0 mi West 5.8 mph - N/A   Mostly Cloudy
1:01 AM 24.8 °F 17.9 °F 19.4 °F 80% 30.25 in 10.0 mi WSW 5.8 mph - N/A   Scattered Clouds
1:55 AM 25.0 °F 19.3 °F 20.1 °F 82% 30.25 in 10.0 mi West 4.6 mph - N/A   Clear
2:55 AM 25.0 °F 19.3 °F 21.7 °F 87% 30.27 in 10.0 mi WNW 4.6 mph - N/A   Clear
3:55 AM 22.8 °F 18.2 °F 21.0 °F 93% 30.27 in 10.0 mi WSW 3.5 mph - N/A   Clear
4:55 AM 21.6 °F 15.3 °F 21.0 °F 98% 30.30 in 10.0 mi WSW 4.6 mph - N/A   Clear
5:55 AM 21.4 °F 16.6 °F 21.2 °F 99% 30.32 in 10.0 mi WSW 3.5 mph - N/A   Clear
6:55 AM 21.4 °F 15.1 °F 21.2 °F 99% 30.35 in 10.0 mi WSW 4.6 mph - N/A   Clear
7:55 AM 21.7 °F 17.0 °F 21.4 °F 99% 30.37 in 9.0 mi SW 3.5 mph - N/A   Clear
8:55 AM 25.3 °F 19.7 °F 24.1 °F 95% 30.38 in 10.0 mi Variable 4.6 mph - N/A   Clear
9:55 AM 29.8 °F 23.0 °F 25.2 °F 83% 30.40 in 10.0 mi West 6.9 mph - N/A   Clear
10:55 AM 34.0 °F 31.0 °F 26.8 °F 75% 30.41 in 10.0 mi Variable 3.5 mph - N/A   Clear
11:55 AM 37.2 °F 31.2 °F 26.4 °F 65% 30.39 in 10.0 mi West 8.1 mph - N/A   Partly Cloudy
12:55 PM 39.6 °F 33.0 °F 25.9 °F 58% 30.37 in 10.0 mi West 10.4 mph - N/A   Scattered Clouds
1:55 PM 39.0 °F 35.7 °F 25.3 °F 58% 30.36 in 10.0 mi Variable 4.6 mph - N/A   Overcast
2:55 PM 39.2 °F 33.6 °F 25.3 °F 58% 30.36 in 10.0 mi NNW 8.1 mph - N/A   Partly Cloudy
3:55 PM 37.0 °F 33.3 °F 23.2 °F 57% 30.38 in 10.0 mi NW 4.6 mph - N/A   Clear
4:55 PM 36.1 °F 32.3 °F 22.3 °F 57% 30.39 in 10.0 mi WNW 4.6 mph - N/A   Scattered Clouds
5:55 PM 34.7 °F 31.8 °F 22.8 °F 62% 30.40 in 10.0 mi NW 3.5 mph - N/A   Overcast
6:55 PM 33.3 °F - 22.6 °F 65% 30.42 in 10.0 mi Calm Calm - N/A   Mostly Cloudy
7:55 PM 31.3 °F - 22.6 °F 70% 30.42 in 10.0 mi Calm Calm - N/A   Clear
8:55 PM 29.7 °F - 22.8 °F 76% 30.41 in 10.0 mi Calm Calm - N/A   Mostly Cloudy
9:55 PM 29.3 °F 25.6 °F 24.8 °F 83% 30.42 in 10.0 mi SW 3.5 mph - N/A   Overcast
10:55 PM 30.6 °F - 23.9 °F 76% 30.41 in 10.0 mi Calm Calm - N/A   Overcast
11:55 PM 30.0 °F - 23.5 °F 77% 30.40 in 10.0 mi Calm Calm - N/A   Mostly Cloudy